Weather Roundup
Issued by NWS Corpus Christi, TX

Home | Current Version | Previous Version | Text Only | Print | Product List | Glossary On
Versions: 1 2 3 4 5 6 7 8 9 10 11 12 13 14 15 16 17 18 19 20 21 22 23 24 25 26 27 28 29 30 31 32 33 34 35 36 37 38 39 40 41 42 43 44 45 46 47 48 49 50
670
ASUS44 KCRP 041110
HRRCRP

SOUTH TEXAS REGIONAL WEATHER ROUNDUP
NATIONAL WEATHER SERVICE CORPUS CHRISTI TX
500 AM CST SUN DEC 04 2016


TXZ229>244-041200-
...CORPUS CHRISTI AREA OBSERVATIONS...

CITY           SKY/WX    TMP DP  RH WIND       PRES   REMARKS
CORPUS CHRISTI TSTM      55  54  96 N17       29.85F
NAS CORPUS CHR CLOUDY    56  56 100 N22       29.85R
ROCKPORT         N/A    N/A N/A N/A MISG      29.87R
KINGSVILLE NAS CLOUDY    56  56 100 NE16      29.85S THUNDER
ALICE          TSTM      54  53  97 N13       29.84F
ORANGE GROVE   CLOUDY    54  54 100 NE14      29.86F THUNDER
FALFURRIAS     CLOUDY    56  55  94 N9        29.82F
$$

...VICTORIA AREA OBSERVATIONS...

CITY           SKY/WX    TMP DP  RH WIND       PRES   REMARKS
VICTORIA       HVY RAIN  51  51 100 N10       29.89F FOG
BEEVILLE       TSTM      46  46 100 NE15      29.85F
PLEASANTON     LGT RAIN  52  50  94 N6        29.90R
SAN ANTONIO    CLOUDY    52  48  86 N15       29.89F
$$

...LAREDO AREA OBSERVATIONS...

CITY           SKY/WX    TMP DP  RH WIND       PRES   REMARKS
LAREDO         RAIN      56  54  93 NW8       29.90R
COTULLA        LGT RAIN  55  52  89 N9        29.88F
DEL RIO        CLOUDY    51  48  89 NW9G20    29.95S
MCALLEN        CLOUDY    63  59  87 NW12      29.84R
HEBBRONVILLE   CLOUDY    54  52  95 N7        29.87R
$$

...OTHER TEXAS OBSERVATIONS...

CITY           SKY/WX    TMP DP  RH WIND       PRES   REMARKS
BROWNSVILLE    CLOUDY    67  66  97 NW9       29.78S
HOUSTON        CLOUDY    52  50  93 NW8       29.93R
COL. STATION   CLOUDY    50  49  96 N10       29.93F
AUSTIN         CLOUDY    52  49  89 N13       29.94R
WACO           CLOUDY    48  48 100 N8        29.97R
FORT WORTH     LGT RAIN  48  46  93 N5        29.97R
WICHITA FALLS  CLOUDY    45  43  93 N7        30.02F
LUBBOCK        CLOUDY    41  39  93 N8        30.01F
EL PASO        PTCLDY    40  36  86 NW3       30.00F
$$

...MARINE OBSERVATIONS...

STATION/POSITION TIME  SKY/WX   TEMP    WIND        PRES    VSBY  WAVE   SWELL
                                AIR SEA DIR/SP/G                  HT/PER HT/PER
                 (UTC)          (F)     (DEG/KT/KT) (MB)    (MI)  (FT/S) (FT/S)
PORT ARANSAS     1100            57 67  340/ 18/ 20 1011.2R
BUOY 90 E PORT A 1050            71 77   60/ 17/ 21 1009.4F         6/ 8   2/12
BUOY 45 SE BAFFI 1050            73 75   80/ 19/ 23 1007.4F         6/ 6   3/ 8
BUOY 200 E PT IS 1050            78 78  150/ 16/ 17 1009.6R         6/ 7   3/12
BUOY 15 E GALVES 1050            59 68   50/ 16/ 19 1010.1F         3/ 8   2/ 8
$$




USA.gov is the U.S. government's official web portal to all federal, state and local government web resources and services.